sat.trackr.live / text

‹ back to catalog

STARLINK-3956

NORAD 52560 · 2022-051AD

PAYLOAD ACTIVE UNKNOWN

§ Identity

Operator
Country
US
Launch date
2022-05-13
Launch site
AFWTR
Launch vehicle
Mass (kg)
RCS (m²)

Purposes: comms

External: N2YO · Heavens-Above · Gunter

§ Orbital elements

Epoch: 2026-09-20T04:12:25.239168Z

Period
93.79 min
Inclination
53.1598°
Eccentricity
0.0001360
Mean motion
15.35410405 rev/d
Perigee alt
458.8 km
Apogee alt
460.6 km
Semi-major
6,837.8 km
B*
5.8357e-5
RAAN
319.5614°
Arg perigee
70.2403°
Mean anomaly
289.8746°
Rev number
24,102

§ Raw data

STARLINK-39561 52560U 22051AD  26263.17529212  .00001656  00000+0  58357-4 0  99952 52560  53.1598 319.5614 0001360  70.2403 289.8746 15.35410405241027

JSON: /api/v1/satellites/52560 · /tle

For live sub-satellite position, see the globe view (requires WebGL).

§ Visibility from observer

Set your observer location to see the next 7 days of passes ≥ 10°. The values pass through the URL so the page stays shareable.

No JS? Fill the form by hand. The geolocation button needs JavaScript.